SCP
0 0 0 0 0 0 0 0 0 0 0 0 0 0 0 0 0 0 0 0 0 0 0 0 0 0 0 0 0 0 0 0 0 0 0 0 0 0 0 0 0 0 0 0
0 0 0 0 0 0 0 0 0 0 0 0 0 0 0 0 0 0 0 0 0 0 0 0 0 0 0 0 0 0 0 0 0 0 0 0 0 0 0 0 0 0 0 0
0 0 0 0 0 0 0 0 0 0 0 0 0 0 0 0 0 0 0 0 0 0 0 0 0 0 0 0 0 0 0 0 0 0 0 0 0 0 0 0 0 0 0 0
0 0 0 0 0 0 0 0 0 0 0 0 0 0 0 0 0 0 0 0 0 0 0 0 0 0 0 0 0 0 0 0 0 0 0 0 0 0 0 0 0 0 0 0
0 0 0 0 0 0 0 0 0 0 0 0 0 0 0 0 0 0 0 0 0 0 0 0 0 0 0 0 0 0 0 0 0 0 0 0 0 0 0 0 0 0 0 0
0 0 0 0 0 0 0 0 0 0 0 0 0 0 0 0 0 0 0 0 0 0 0 0 0 0 0 0 0 0 0 0 0 0 0 0 0 0 0 0 0 0 0 0
0 0 0 0 0 0 0 0 0 0 0 0 0 0 0 0 0 0 0 0 0 0 0 0 0 0 0 0 0 0 0 0 0 0 0 0 0 0 0 0 0 0 0 0
0 0 0 0 0 0 0 0 0 0 0 0 0 0 0 0 0 0 0 0 0 0 0 0 0 0 0 0 0 0 0 0 0 0 0 0 0 0 0 0 0 0 0 0
0 0 0 0 0 0 0 0 0 0 0 0 0 0 0 0 0 0 0 0 0 0 0 0 0 0 0 0 0 0 0 0 0 0 0 0 0 0 0 0 0 0 0 0
0 0 0 0 0 0 0 0 0 0 0 0 0 0 0 0 0 0 0 0 0 0 0 0 0 0 0 0 0 0 0 0 0 0 0 0 0 0 0 0 0 0 0 0
0 0 0 0 0 0 0 0 0 0 0 0 0 0 0 0 0 0 0 0 0 0 0 0 0 0 0 0 0 0 0 0 0 0 0 0 0 0 0 0 0 0 0 0
0 0 0 0 0 0 0 0 0 0 0 0 0 0 0 0 0 0 0 0 0 0 0 0 0 0 0 0 0 0 0 0 0 0 0 0 0 0 0 0 0 0 0 0
0 0 0 0 0 0 0 0 0 0 0 0 0 0 0 0 0 0 0 0 0 0 0 0 0 0 0 0 0 0 0 0 0 0 0 0 0 0 0 0 0 0 0 0
0 0 0 0 0 0 0 0 0 0 0 0 0 0 0 0 0 0 0 0 0 0 0 0 0 0 0 0 0 0 0 0 0 0 0 0 0 0 0 0 0 0 0 0
0 0 0 0 0 0 0 0 0 0 0 0 0 0 0 0 0 0 0 0 0 0 0 0 0 0 0 0 0 0 0 0 0 0 0 0 0 0 0 0 0 0 0 0
0 0 0 0 0 0 0 0 0 0 0 0 0 0 0 0 0 0 0 0 0 0 0 0 0 0 0 0 0 0 0 0 0 0 0 0 0 0 0 0 0 0 0 0
0 0 0 0 0 0 0 0 0 0 0 0 0 0 0 0 0 0 0 0 0 0 0 0 0 0 0 0 0 0 0 0 0 0 0 0 0 0 0 0 0 0 0 0
0 0 0 0 0 0 0 0 0 0 0 0 0 0 0 0 0 0 0 0 0 0 0 0 0 0 0 0 0 0 0 0 0 0 0 0 0 0 0 0 0 0 0 0
0 0 0 0 0 0 0 0 0 0 0 0 0 0 0 0 0 0 0 0 0 0 0 0 0 0 0 0 0 0 0 0 0 0 0 0 0 0 0 0 0 0 0 0
0 0 0 0 0 0 0 0 0 0 0 0 0 0 0 0 0 0 0 0 0 0 0 0 0 0 0 0 0 0 0 0 0 0 0 0 0 0 0 0 0 0 0 0
0 0 0 0 0 0 0 0 0 0 0 0 0 0 0 0 0 0 0 0 0 0 0 0 0 0 0 0 0 0 0 0 0 0 0 0 0 0 0 0 0 0 0 0
0 0 0 0 0 0 0 0 0 0 0 0 0 0 0 0 0 0 0 0 0 0 0 0 0 0 0 0 0 0 0 0 0 0 0 0 0 0 0 0 0 0 0 0
0 0 0 0 0 0 0 0 0 0 0 0 0 0 0 0 0 0 0 0 0 0 0 0 0 0 0 0 0 0 0 0 0 0 0 0 0 0 0 0 0 0 0 0
0 0 0 0 0 0 0 0 0 0 0 0 0 0 0 0 0 0 0 0 0 0 0 0 0 0 0 0 0 0 0 0 0 0 0 0 0 0 0 0 0 0 0 0
0 0 0 0 0 0 0 0 0 0 0 0 0 0 0 0 0 0 0 0 0 0 0 0 0 0 0 0 0 0 0 0 0 0 0 0 0 0 0 0 0 0 0 0
0 0 0 0 0 0 0 0 0 0 0 0 0 0 0 0 0 0 0 0 0 0 0 0 0 0 0 0 0 0 0 0 0 0 0 0 0 0 0 0 0 0 0 0
0 0 0 0 0 0 0 0 0 0 0 0 0 0 0 0 0 0 0 0 0 0 0 0 0 0 0 0 0 0 0 0 0 0 0 0 0 0 0 0 0 0 0 0
Wind_Speed
2 3 5 6 7 9 8 7 7 6 6 7 7 8 8 7 7 6 6 6 6 6 5 4 4 3 3 3 3 4 4 4 4 4 4 5 5 5 6 6 6 6 6 6
1 2 4 4 7 9 9 7 8 5 6 5 4 4 5 6 7 7 7 7 7 7 6 6 5 5 4 4 4 4 5 4 4 4 5 5 5 5 6 6 6 6 6 6
1 1 2 5 8 10 7 6 7 11 9 3 4 6 8 8 7 7 7 7 7 7 7 6 6 6 5 4 4 5 5 4 4 5 5 5 5 6 6 5 6 6 6 6
1 1 4 6 3 6 7 7 7 6 5 6 7 6 4 5 7 7 6 6 6 6 5 5 5 5 5 5 5 5 5 5 5 5 5 5 5 6 5 4 5 5 5 5
2 2 5 5 2 3 4 4 5 7 5 4 4 3 0 1 4 5 5 5 5 5 5 5 6 6 6 5 5 5 5 5 5 5 6 5 5 5 4 4 4 4 4 5
2 2 4 4 2 1 3 3 3 4 5 5 6 4 4 2 2 3 4 4 4 5 5 6 5 6 7 6 5 5 5 5 5 5 6 6 5 4 4 4 4 4 4 4
3 3 6 5 2 2 2 4 2 2 3 5 4 4 3 4 3 3 3 4 5 5 5 5 6 7 6 6 5 5 5 5 5 5 6 6 5 4 4 4 4 4 4 3
3 4 7 2 3 3 4 1 2 3 2 4 3 3 4 3 3 3 4 4 4 4 4 4 6 7 6 6 5 6 6 6 6 5 5 5 5 4 4 5 4 3 3 2
6 6 3 1 3 1 3 3 2 2 2 4 3 2 2 2 3 3 4 4 4 4 5 4 5 6 7 6 6 7 6 6 6 5 5 5 5 5 4 4 3 3 2 2
2 3 2 1 1 1 2 3 2 2 2 3 2 2 2 2 2 3 3 4 4 5 5 5 5 6 6 7 7 7 7 6 6 6 5 4 4 4 4 4 4 3 3 3
3 2 0 1 1 2 3 3 3 3 2 2 1 1 1 2 3 3 3 4 5 6 6 6 6 6 6 7 8 8 7 6 5 5 5 4 3 3 4 3 5 5 4 3
4 4 4 3 2 3 4 2 2 1 1 1 0 1 2 2 2 3 3 3 4 6 6 6 7 7 7 8 8 8 7 6 5 4 4 4 4 2 3 4 6 8 7 6
3 1 2 2 2 2 3 2 1 1 0 1 1 1 1 2 2 2 3 4 5 6 6 6 7 7 8 8 8 8 7 7 5 5 5 5 4 4 3 2 3 5 7 7
0 2 2 1 1 1 2 1 1 1 1 1 1 1 1 1 2 3 4 4 4 4 5 6 7 7 8 8 8 8 7 7 6 5 5 5 5 4 4 4 3 2 4 6
1 1 3 2 2 2 2 2 2 2 2 2 2 2 2 2 3 3 3 3 3 4 5 6 7 7 7 8 8 8 7 5 5 5 5 5 4 4 4 4 3 3 2 3
1 2 3 3 2 2 2 1 1 1 2 2 3 3 3 3 3 3 2 2 3 5 5 6 6 6 7 8 8 7 6 9 8 5 5 5 5 5 5 4 4 4 4 4
3 3 3 2 1 1 0 0 1 2 2 3 3 4 3 3 2 2 2 2 3 4 4 5 5 5 6 8 8 6 5 7 10 6 5 5 5 6 5 5 5 5 5 5
1 2 2 2 2 1 0 1 1 2 2 3 3 3 3 2 3 3 3 2 1 1 2 2 3 4 5 6 6 5 5 5 6 6 5 5 5 5 5 5 5 5 4 5
4 4 4 3 2 1 1 1 2 3 3 3 3 3 3 3 3 3 2 1 2 2 2 2 3 4 4 6 6 5 5 6 5 5 5 7 7 5 5 5 5 5 5 4
4 4 4 3 3 2 1 2 2 2 3 3 3 3 3 3 3 3 2 2 2 2 2 2 2 3 4 5 7 4 6 6 6 6 6 6 6 6 6 6 6 5 5 5
3 3 3 2 2 2 2 2 2 3 3 3 2 3 3 3 3 2 2 2 2 2 2 3 2 2 3 4 6 4 5 5 6 6 6 6 6 6 6 6 6 5 5 5
1 1 2 2 1 2 2 2 2 3 3 3 3 3 3 3 3 3 2 2 2 4 2 2 2 3 4 4 3 4 5 5 5 5 5 5 5 6 6 6 6 5 5 5
0 1 1 1 1 1 2 2 2 2 3 3 3 3 3 3 2 2 3 2 3 5 3 2 4 5 5 3 3 4 5 5 5 5 5 5 5 5 6 6 5 5 5 5
0 0 0 1 1 1 2 3 3 2 3 2 2 3 3 3 2 1 2 5 6 6 3 4 5 5 4 2 3 3 4 4 5 5 5 4 5 5 5 5 5 5 5 6
1 0 0 0 1 1 2 2 3 3 3 2 3 3 2 2 2 3 3 4 6 5 3 4 5 5 2 2 2 3 3 4 4 4 4 4 4 4 4 4 5 5 5 5
1 1 1 1 1 1 1 1 1 2 2 2 2 2 2 2 3 3 3 4 5 4 3 2 2 2 1 2 2 3 3 3 4 4 4 4 4 4 4 4 5 5 5 5
1 1 1 1 1 1 1 1 1 2 2 2 3 3 3 3 3 3 3 3 3 3 3 2 2 1 1 1 2 2 2 2 3 3 3 3 3 4 4 5 4 4 4 4
Wind_Direction
223 191 164 187 197 193 198 198 198 226 220 226 206 188 183 176 168 164 172 175 176 174 171 165 155 149 142 131 119 114 107 100 94 86 79 75 72 68 67 68 70 69 71 69
318 194 188 208 211 205 213 216 223 236 250 236 208 177 179 182 177 182 190 190 184 178 174 174 171 165 152 143 135 123 117 113 106 97 89 83 80 78 76 73 71 71 70 71
277 335 62 258 223 206 206 206 199 224 234 189 179 190 194 194 192 194 194 189 183 183 184 182 177 166 160 152 137 128 124 119 114 109 101 96 95 89 84 80 77 74 71 73
157 89 235 248 245 201 205 226 217 220 215 195 203 202 195 190 189 194 190 183 182 178 174 168 161 152 146 142 139 135 132 128 125 122 115 106 102 97 91 87 84 81 77 73
155 214 276 289 268 182 182 249 228 216 214 194 170 118 348 246 187 187 183 173 171 165 160 155 156 152 144 142 141 142 143 142 141 136 130 123 116 110 102 98 90 84 81 77
165 195 243 264 286 204 119 271 279 199 192 172 141 165 229 192 144 138 134 137 141 138 139 151 157 149 146 150 150 154 152 148 143 139 136 133 130 121 111 109 104 96 87 80
189 227 266 263 263 101 160 246 315 142 159 153 168 194 173 134 121 130 132 135 138 141 151 164 158 151 153 156 164 157 144 140 139 138 138 136 130 124 122 116 109 102 95 76
177 210 254 268 134 174 207 176 85 86 102 122 126 113 119 130 138 142 139 142 146 150 160 161 158 155 159 167 159 146 142 143 142 143 144 140 133 127 125 127 123 121 114 96
195 215 247 209 176 193 147 129 113 104 93 110 121 143 153 162 167 171 172 171 165 166 166 168 170 166 168 168 155 149 147 149 147 144 141 144 144 143 140 144 147 154 155 159
230 255 251 224 125 81 103 118 105 105 109 114 140 161 171 181 191 194 191 185 175 172 177 182 180 177 171 162 159 156 157 156 154 151 149 150 152 157 162 168 169 175 179 183
242 260 276 291 190 153 108 94 84 72 78 102 126 175 197 212 215 208 202 193 185 189 192 191 181 179 172 166 163 163 163 163 162 161 158 156 159 174 177 190 187 183 190 185
227 219 201 213 199 151 130 125 120 103 55 28 77 238 235 238 229 214 206 197 197 200 197 190 183 184 180 175 170 168 170 173 172 166 162 158 152 148 186 187 200 201 196 192
231 230 159 141 115 122 136 140 137 135 157 313 317 276 249 250 237 221 212 208 209 208 201 191 187 189 184 179 177 179 179 177 174 172 169 167 166 166 168 185 198 204 207 209
143 104 118 156 159 112 107 94 79 58 31 3 329 322 304 273 253 238 230 223 218 207 198 191 191 195 187 181 181 184 180 181 178 178 174 175 179 181 180 181 194 235 233 226
314 160 165 144 112 87 78 76 68 31 7 358 349 333 312 285 267 261 251 233 214 204 200 194 198 200 185 181 183 184 183 181 178 173 174 177 179 182 189 196 201 210 227 244
187 104 113 120 122 99 80 75 55 328 334 330 329 320 307 290 281 278 261 219 206 214 210 204 208 200 183 183 183 184 188 186 177 176 177 180 182 188 195 200 205 211 220 225
162 171 164 171 171 150 81 352 311 313 320 318 314 313 314 309 300 293 286 266 243 233 218 210 209 190 183 185 186 185 183 186 185 182 187 190 192 197 199 202 209 217 226 227
151 149 142 155 166 162 357 8 354 335 320 315 317 318 316 308 296 293 292 289 278 264 243 224 200 184 186 188 186 181 180 183 186 190 192 197 199 200 200 207 214 221 229 236
76 82 81 80 79 81 45 2 344 335 328 326 319 314 307 303 302 301 297 272 249 254 267 254 214 193 195 196 186 182 184 187 191 194 196 206 206 203 206 211 218 222 225 226
73 75 76 68 56 50 28 353 342 336 333 326 319 322 325 323 320 310 289 258 251 274 272 254 224 211 204 199 192 189 191 194 198 200 200 203 206 209 211 215 220 224 226 229
74 71 68 60 46 33 15 354 344 332 331 333 329 320 316 316 317 308 288 282 301 313 294 262 238 224 210 206 200 195 196 198 202 204 204 207 212 215 216 218 221 226 228 232
69 70 57 43 29 7 357 357 350 340 338 337 335 330 325 323 323 311 283 288 309 311 309 273 255 240 232 215 200 198 200 202 206 205 207 209 213 217 221 221 224 228 230 232
93 69 43 11 343 330 350 357 349 342 335 331 333 333 326 317 310 307 309 321 317 305 305 274 274 261 244 216 201 203 205 207 208 209 211 213 217 219 223 225 226 228 231 234
157 46 0 354 356 358 344 339 338 335 330 325 330 333 331 325 317 314 309 311 315 310 301 286 280 267 252 218 204 207 210 212 213 213 212 215 219 222 224 227 230 231 233 237
194 206 263 321 319 303 306 321 334 340 341 334 333 337 336 324 307 311 313 310 313 317 309 294 287 277 258 220 211 216 218 220 219 214 212 216 220 224 226 228 231 234 237 240
211 235 247 252 258 274 293 311 315 319 326 328 329 330 330 325 316 313 312 312 314 317 317 302 289 279 263 234 226 227 228 232 233 225 217 219 222 224 228 232 235 236 240 244
222 230 246 273 273 267 280 289 296 309 319 317 316 324 328 327 326 324 322 322 322 319 311 306 300 288 268 252 247 240 232 227 224 223 222 223 223 227 231 233 237 239 242 247